#timestamp,LO_Frequency,Hit,StdDev 
1615874415.2,286046999.5,N
1615874435.0,286047002.7,N
1615874435.9,286047002.7,N
1615874455.8,286047000.4,N
1615874475.6,286046996.9,N
1615874495.4,286046998.9,N
1615874515.3,286046996.9,N
1615874535.1,286046999.1,N
1615874555.9,286046994.6,N
1615874575.7,286046991.1,Y
1615874595.5,286046987.2,P
1615874615.4,286046985.9,N
1615874635.2,286046982.9,N
1615874655.0,286046981.8,Y
1615874655.9,286046981.8,P
1615874675.8,286046993.1,N
1615874695.6,286046991.0,N
1615874715.5,286046990.8,N
1615874735.3,286046989.3,N
1615874755.1,286046989.6,N
1615874775.9,286046989.3,Y
1615874795.7,286047000.6,P
1615874815.5,286046998.8,N
1615874835.4,286046998.4,N
1615874855.2,286046998.8,N
1615874875.1,286046996.8,N
1615874876.0,286046996.8,N
1615874895.8,286046997.5,N
1615874915.6,286046995.6,N
1615874935.5,286046999.5,N
1615874955.3,286046998.3,N
1615874975.1,286047001.2,N
1615874995.9,286046999.2,N
1615875015.7,286046997.2,N
1615875035.6,286046999.0,N
1615875055.4,286046999.6,N
1615875075.2,286046999.1,N
1615875095.1,286046997.0,N
1615875096.0,286046997.0,N
1615875115.8,286046997.1,N
1615875135.6,286046999.5,N
1615875155.5,286046998.7,N
1615875175.3,286047000.3,N
1615875195.2,286046999.4,N
1615875215.9,286046997.2,N
1615875235.7,286046999.0,N
1615875255.6,286046998.7,N
1615875275.4,286046999.1,N
1615875295.2,286046998.9,N
1615875315.1,286046999.2,N
1615875316.0,286046999.2,N
1615875335.8,286046996.8,N
1615875355.7,286046996.8,N
1615875375.5,286046994.9,Y
1615875395.3,286046996.6,P
1615875415.2,286046997.8,N
1615875435.0,286046997.9,N
1615875435.9,286046997.9,Y
1615875455.7,286046996.5,P
1615875475.6,286046997.3,P
1615875495.4,286046996.6,P
1615875515.3,286046996.8,Y
1615875535.1,286047002.4,P
1615875536.0,286047002.4,N
1615875555.8,286046999.9,N
1615875575.7,286047002.0,N
1615875595.5,286047000.5,N
1615875615.3,286047001.8,N
1615875635.2,286047002.1,N
1615875655.0,286047000.4,N
1615875655.9,286047000.4,N
1615875675.8,286047000.0,N
1615875695.6,286047000.0,N
1615875715.4,286047001.9,N
1615875735.3,286047001.1,N
1615875755.1,286046998.5,N
1615875775.8,286046998.7,N
1615875795.7,286047001.2,N
1615875815.5,286047002.8,N
1615875835.4,286047002.1,N
1615875855.2,286047003.6,N
1615875875.0,286047001.7,N
1615875875.9,286047001.7,N
1615875895.8,286047001.8,N
1615875915.6,286047002.6,N
1615875935.4,286047002.8,N
1615875955.3,286047000.9,N
1615875975.1,286046998.1,N
1615875995.9,286046999.5,N
1615876015.7,286046996.5,N
1615876035.5,286046997.6,N
1615876055.4,286046997.4,N
1615876075.2,286046997.0,N
1615876095.0,286046996.5,N
1615876095.9,286046996.5,N
1615876115.8,286046997.2,N
1615876135.6,286046997.1,N
1615876155.5,286046996.9,N
1615876175.3,286046999.3,N
1615876195.1,286046998.7,N
1615876215.9,286047000.9,N
1615876235.7,286046998.5,N
1615876255.5,286046999.0,N
1615876275.4,286046999.4,N
1615876295.2,286046996.9,N
1615876315.1,286046998.6,N
1615876316.0,286046998.6,N
1615876335.8,286046998.5,N
1615876355.6,286047000.7,N
1615876375.5,286047001.1,N
1615876395.3,286047001.2,N
1615876415.1,286046998.1,N
1615876435.9,286047000.9,N
1615876455.7,286047004.3,N
1615876475.6,286047002.0,N
1615876495.4,286047004.1,N
1615876515.2,286047001.3,N
1615876535.1,286047002.4,N
1615876536.0,286047002.4,N
1615876555.8,286047002.8,N
1615876575.6,286046999.7,N
1615876595.5,286047000.1,N
1615876615.3,286047000.6,N
1615876635.2,286047002.8,N
1615876655.9,286047002.4,N
1615876675.7,286047002.0,N
1615876695.6,286047000.0,N
1615876715.4,286046998.1,N
1615876735.3,286047000.5,N
1615876755.1,286047002.8,N
1615876756.0,286047002.8,N
1615876775.8,286047002.8,N
1615876795.7,286047001.1,N
1615876815.5,286046999.4,N
1615876835.3,286046998.6,N
1615876855.2,286046998.1,N
1615876875.0,286046998.1,N
1615876875.9,286046998.1,N
1615876895.8,286047001.0,N
1615876915.6,286046998.7,N
1615876935.4,286047001.0,N
1615876955.3,286047000.7,N
1615876975.1,286047001.1,N
1615876995.9,286046999.0,N
1615877015.7,286046999.1,N
1615877035.5,286046996.5,N
1615877055.4,286046996.6,N
1615877075.2,286046996.5,N
1615877095.0,286046997.0,N
1615877095.9,286046997.0,N
1615877115.8,286046997.0,N
1615877135.6,286046999.1,N
1615877155.5,286046998.8,N
1615877175.3,286046999.4,N
1615877195.1,286046998.9,N
1615877215.9,286046999.1,N
1615877235.7,286046998.9,N
1615877255.5,286046996.6,N
1615877275.4,286046996.6,N
1615877295.2,286046997.0,N
1615877315.1,286046996.9,N
1615877316.0,286046996.9,N
1615877335.8,286046997.7,N
1615877355.6,286046994.9,Y
1615877375.5,286046997.1,P
1615877395.3,286046997.2,P
1615877415.1,286046997.6,P
1615877435.9,286046993.8,Y
1615877455.7,286046997.9,P
1615877475.6,286046995.3,P
1615877495.4,286046993.3,P
1615877515.2,286046995.8,N
1615877535.1,286046997.4,N
1615877536.0,286046997.4,N
1615877555.8,286046996.7,N
1615877575.7,286046997.5,N
1615877595.5,286046999.2,N
1615877615.3,286047001.0,N
1615877635.2,286046998.6,N
1615877655.9,286047001.1,N
1615877675.7,286047001.1,N
1615877695.6,286046998.1,N
1615877715.4,286046998.4,N
1615877735.2,286046998.4,N
1615877755.1,286046999.0,N
1615877756.0,286046999.0,N
1615877775.8,286046997.7,N
1615877795.7,286046999.6,N
1615877815.5,286046998.1,N
1615877835.3,286047000.8,N
1615877855.2,286047002.7,N
1615877875.0,286047000.2,N
1615877875.9,286047000.2,N
1615877895.7,286047000.9,N
1615877915.6,286046999.9,N
1615877935.4,286046999.7,N
1615877955.3,286047001.6,N
1615877975.1,286047002.4,N
1615877976.0,286047002.4,N
1615877995.8,286047003.9,N
